Weather History for KMZG - April, 2014

Change the Weather History Date:

Wednesday, April 9, 2014

  Actual Average Record
Temperature  
Mean Temperature 70 °F -  
Max Temperature 73 °F - - ()
Min Temperature 68 °F - - ()
Cooling Degree Days 6    
Growing Degree Days 20 (Base 50)    
Moisture  
Dew Point 48 °F    
Average Humidity 43    
Maximum Humidity 53    
Minimum Humidity 38    
Precipitation  
Precipitation 0.00 in - - ()
Sea Level Pressure  
Sea Level Pressure 30.24 in    
Wind  
Wind Speed 10 mph (ESE)    
Max Wind Speed 13 mph    
Max Gust Speed 22 mph    
Visibility 10 miles    
Events      
T = Trace of Precipitation, MM = Missing Value Source: NWS Daily Summary

Daily Weather History Graph

Daily Weather History Graph

Search for Another Location

Airport or City:

Trip Planner

Search our weather history database for the weather conditions in past years. The results will help you decide how hot, cold, wet, or windy it might be!

Date:

Astronomy

Apr. 09, 2014 Rise Set
Actual Time 7:06 AM CDT 7:46 PM CDT
Civil Twilight 6:42 AM CDT 8:10 PM CDT
Nautical Twilight 6:14 AM CDT 8:38 PM CDT
Astronomical Twilight 5:46 AM CDT 9:06 PM CDT
Moon 3:01 PM CDT (4/9) 3:29 AM CDT (4/9)
Length of Visible Light 13h 27m
Length of Day
12h 40m
Waxing Gibbous, 72% of the Moon is Illuminated
Apr 9
Waxing Gibbous
Apr 15
Full
Apr 22
Last Quarter
Apr 29
New
May 6
First Quarter

Hourly Weather History & Observations

Time (CDT) Temp. Dew Point Humidity Pressure Visibility Wind Dir Wind Speed Gust Speed Precip Events Conditions
12:15 AM 71.6 °F 46.4 °F 41% 30.20 in 10.0 mi NE 11.5 mph 21.9 mph N/A   Clear
12:35 AM 71.6 °F 46.4 °F 41% 30.20 in 10.0 mi NE 11.5 mph - N/A   Clear
12:55 AM 71.6 °F 48.2 °F 43% 30.20 in 9.0 mi ENE 12.7 mph 18.4 mph N/A   Clear
1:15 AM 71.6 °F 46.4 °F 41% 30.20 in 7.0 mi NE 11.5 mph 18.4 mph N/A   Clear
1:55 AM 73.4 °F 48.2 °F 41% 30.20 in 5.0 mi NE 8.1 mph 13.8 mph N/A   Haze
2:15 AM 73.4 °F 48.2 °F 41% 30.20 in 6.0 mi Variable 6.9 mph 13.8 mph N/A   Haze
2:35 AM 73.4 °F 46.4 °F 38% 30.20 in 5.0 mi ENE 6.9 mph 13.8 mph N/A   Haze
2:55 AM 71.6 °F 44.6 °F 38% 30.20 in 10.0 mi ENE 10.4 mph - N/A   Clear
3:15 AM 71.6 °F 46.4 °F 41% 30.19 in 9.0 mi ENE 6.9 mph 13.8 mph N/A   Clear
3:35 AM 71.6 °F 46.4 °F 41% 30.19 in 7.0 mi ENE 9.2 mph - N/A   Clear
3:55 AM 69.8 °F 46.4 °F 43% 30.19 in 10.0 mi East 8.1 mph - N/A   Clear
4:15 AM 69.8 °F 44.6 °F 40% 30.19 in 10.0 mi East 8.1 mph - N/A   Clear
4:35 AM 69.8 °F 46.4 °F 43% 30.19 in 10.0 mi East 5.8 mph - N/A   Clear
4:55 AM 69.8 °F 46.4 °F 43% 30.19 in 10.0 mi East 9.2 mph - N/A   Clear
5:15 AM 69.8 °F 46.4 °F 43% 30.19 in 10.0 mi East 8.1 mph - N/A   Clear
5:35 AM 69.8 °F 44.6 °F 40% 30.20 in 10.0 mi East 8.1 mph - N/A   Clear
5:55 AM 68.0 °F 46.4 °F 46% 30.20 in 10.0 mi East 6.9 mph - N/A   Clear
6:15 AM 69.8 °F 44.6 °F 40% 30.21 in 10.0 mi East 6.9 mph 15.0 mph N/A   Clear
6:35 AM 69.8 °F 44.6 °F 40% 30.21 in 10.0 mi ESE 12.7 mph - N/A   Clear
6:55 AM 69.8 °F 46.4 °F 43% 30.22 in 10.0 mi East 10.4 mph - N/A   Clear
7:15 AM 69.8 °F 46.4 °F 43% 30.23 in 10.0 mi ESE 12.7 mph - N/A   Clear
7:35 AM 69.8 °F 44.6 °F 40% 30.24 in 10.0 mi ESE 12.7 mph - N/A   Clear
7:55 AM 69.8 °F 46.4 °F 43% 30.25 in 10.0 mi ESE 12.7 mph - N/A   Clear
8:15 AM 69.8 °F 44.6 °F 40% 30.25 in 10.0 mi ESE 11.5 mph - N/A   Clear
8:35 AM 71.6 °F 46.4 °F 41% 30.26 in 10.0 mi ESE 11.5 mph - N/A   Clear
8:55 AM 71.6 °F 46.4 °F 41% 30.26 in 10.0 mi ESE 11.5 mph - N/A   Clear
9:15 AM 71.6 °F 48.2 °F 43% 30.27 in 10.0 mi SE 8.1 mph - N/A   Clear
9:35 AM 71.6 °F 48.2 °F 43% 30.28 in 10.0 mi SE 10.4 mph - N/A   Clear
9:55 AM 71.6 °F 48.2 °F 43% 30.28 in 10.0 mi SE 9.2 mph - N/A   Clear
10:15 AM 73.4 °F 46.4 °F 38% 30.29 in 10.0 mi SE 8.1 mph - N/A   Clear
10:35 AM 73.4 °F 46.4 °F 38% 30.29 in 10.0 mi SSE 8.1 mph - N/A   Clear
10:55 AM 73.4 °F 50.0 °F 44% 30.29 in 10.0 mi SSE 8.1 mph - N/A   Clear
11:15 AM 73.4 °F 48.2 °F 41% 30.30 in 10.0 mi SSE 6.9 mph - N/A   Clear
11:35 AM 73.4 °F 50.0 °F 44% 30.29 in 10.0 mi SSE 6.9 mph - N/A   Clear
11:55 AM 73.4 °F 50.0 °F 44% 30.29 in 9.0 mi SSE 6.9 mph - N/A   Clear
12:15 PM 73.4 °F 51.8 °F 47% 30.29 in 10.0 mi SSE 8.1 mph - N/A   Clear
12:35 PM 73.4 °F 51.8 °F 47% 30.29 in 10.0 mi SSE 8.1 mph - N/A   Clear
12:55 PM 73.4 °F 51.8 °F 47% 30.28 in 10.0 mi SSE 8.1 mph - N/A   Clear
1:15 PM 73.4 °F 51.8 °F 47% 30.26 in 10.0 mi SSE 9.2 mph - N/A   Clear
1:35 PM 73.4 °F 51.8 °F 47% 30.26 in 10.0 mi SSE 8.1 mph - N/A   Clear
1:55 PM 73.4 °F 51.8 °F 47% 30.26 in 10.0 mi SSE 6.9 mph - N/A   Clear
2:15 PM 73.4 °F 53.6 °F 50% 30.25 in 10.0 mi SSE 6.9 mph - N/A   Clear
2:35 PM 73.4 °F 53.6 °F 50% 30.24 in 10.0 mi South 6.9 mph - N/A   Clear
2:55 PM 73.4 °F 53.6 °F 50% 30.23 in 10.0 mi SSE 9.2 mph - N/A   Clear
3:15 PM 73.4 °F 53.6 °F 50% 30.21 in 10.0 mi SSE 9.2 mph - N/A   Clear
3:30 PM 73.4 °F 55.4 °F 53% 30.21 in 10.0 mi South 6.9 mph - N/A   Clear